Time,TemperatureF,DewpointF,PressureIn,WindDirection,WindDirectionDegrees,WindSpeedMPH,WindSpeedGustMPH,Humidity,HourlyPrecipIn,Conditions,Clouds,dailyrainin,SoftwareType,DateUTC
2013-06-25 00:01:00,55.0,41.0,-100.00,SW,216,1.0,3.0,60,-99.99,,,-99.99,,2013-06-25 06:01:00,
2013-06-25 00:11:00,55.0,41.0,-100.00,NNW,348,5.0,5.0,59,-99.99,,,-99.99,,2013-06-25 06:11:00,
2013-06-25 00:33:00,55.0,41.0,-100.00,NNW,330,2.0,6.0,58,-99.99,,,-99.99,,2013-06-25 06:33:00,
2013-06-25 00:43:00,54.0,42.0,-100.00,NNW,330,6.0,6.0,63,-99.99,,,-99.99,,2013-06-25 06:43:00,
2013-06-25 00:52:00,53.0,42.0,-100.00,NW,313,2.0,5.0,64,-99.99,,,-99.99,,2013-06-25 06:52:00,
2013-06-25 01:02:00,51.0,41.0,-100.00,West,262,1.0,6.0,68,-99.99,,,-99.99,,2013-06-25 07:02:00,
2013-06-25 01:11:00,51.0,41.0,-100.00,West,262,1.0,6.0,68,-99.99,,,-99.99,,2013-06-25 07:11:00,
2013-06-25 01:22:00,52.0,41.0,-100.00,NW,318,5.0,6.0,67,-99.99,,,-99.99,,2013-06-25 07:22:00,
2013-06-25 01:33:00,52.0,41.0,-100.00,ESE,116,1.0,6.0,65,-99.99,,,-99.99,,2013-06-25 07:33:00,
2013-06-25 01:43:00,52.0,41.0,-100.00,North,0,0.0,1.0,65,-99.99,,,-99.99,,2013-06-25 07:43:00,
2013-06-25 02:11:00,47.0,39.0,-100.00,NW,307,1.0,4.0,73,-99.99,,,-99.99,,2013-06-25 08:11:00,
2013-06-25 02:52:00,49.0,40.0,-100.00,NNW,342,3.0,4.0,71,-99.99,,,-99.99,,2013-06-25 08:52:00,
2013-06-25 03:12:00,47.0,38.0,-100.00,North,0,0.0,2.0,71,-99.99,,,-99.99,,2013-06-25 09:12:00,
2013-06-25 03:21:00,47.0,38.0,-100.00,North,0,0.0,2.0,71,-99.99,,,-99.99,,2013-06-25 09:21:00,
2013-06-25 03:33:00,44.0,37.0,-100.00,NW,317,0.0,3.0,77,-99.99,,,-99.99,,2013-06-25 09:33:00,
2013-06-25 03:43:00,44.0,38.0,-100.00,ENE,57,2.0,3.0,78,-99.99,,,-99.99,,2013-06-25 09:43:00,
2013-06-25 04:11:00,45.0,39.0,-100.00,ESE,120,3.0,4.0,76,-99.99,,,-99.99,,2013-06-25 10:11:00,
2013-06-25 04:21:00,47.0,39.0,-100.00,ESE,109,1.0,2.0,74,-99.99,,,-99.99,,2013-06-25 10:21:00,
2013-06-25 04:33:00,43.0,38.0,-100.00,WSW,250,3.0,4.0,81,-99.99,,,-99.99,,2013-06-25 10:33:00,
2013-06-25 04:42:00,44.0,38.0,-100.00,ESE,108,2.0,3.0,79,-99.99,,,-99.99,,2013-06-25 10:42:00,
2013-06-25 05:01:00,45.0,38.0,-100.00,SE,131,0.0,3.0,76,-99.99,,,-99.99,,2013-06-25 11:01:00,
2013-06-25 05:21:00,44.0,37.0,-100.00,ESE,116,0.0,5.0,76,-99.99,,,-99.99,,2013-06-25 11:21:00,
2013-06-25 05:43:00,43.0,37.0,-100.00,NNW,343,1.0,2.0,79,-99.99,,,-99.99,,2013-06-25 11:43:00,
2013-06-25 06:11:00,44.0,38.0,-100.00,East,84,1.0,4.0,78,-99.99,,,-99.99,,2013-06-25 12:11:00,
2013-06-25 06:22:00,44.0,38.0,-100.00,ESE,110,1.0,3.0,76,-99.99,,,-99.99,,2013-06-25 12:22:00,
2013-06-25 06:33:00,45.0,38.0,-100.00,North,0,0.0,2.0,74,-99.99,,,-99.99,,2013-06-25 12:33:00,
2013-06-25 06:43:00,45.0,38.0,-100.00,ENE,66,1.0,2.0,75,-99.99,,,-99.99,,2013-06-25 12:43:00,
2013-06-25 07:01:00,45.0,38.0,-100.00,South,187,0.0,2.0,74,-99.99,,,-99.99,,2013-06-25 13:01:00,
2013-06-25 07:34:00,45.0,38.0,-100.00,North,354,2.0,3.0,75,-99.99,,,-99.99,,2013-06-25 13:34:00,
2013-06-25 07:53:00,46.0,39.0,-100.00,North,350,1.0,4.0,74,-99.99,,,-99.99,,2013-06-25 13:53:00,
2013-06-25 08:01:00,47.0,39.0,-100.00,North,355,1.0,4.0,75,-99.99,,,-99.99,,2013-06-25 14:01:00,
2013-06-25 08:22:00,49.0,40.0,-100.00,East,91,1.0,2.0,70,-99.99,,,-99.99,,2013-06-25 14:22:00,
2013-06-25 08:34:00,52.0,40.0,-100.00,SE,130,0.0,1.0,64,-99.99,,,-99.99,,2013-06-25 14:34:00,
2013-06-25 09:11:00,52.0,41.0,-100.00,WNW,293,2.0,4.0,65,-99.99,,,-99.99,,2013-06-25 15:11:00,
2013-06-25 09:22:00,52.0,41.0,-100.00,WNW,293,2.0,4.0,65,-99.99,,,-99.99,,2013-06-25 15:22:00,
2013-06-25 09:32:00,54.0,42.0,-100.00,West,272,2.0,3.0,64,-99.99,,,-99.99,,2013-06-25 15:32:00,
2013-06-25 09:43:00,55.0,42.0,-100.00,WNW,289,2.0,3.0,60,-99.99,,,-99.99,,2013-06-25 15:43:00,
2013-06-25 10:12:00,57.0,41.0,-100.00,NNW,342,4.0,5.0,55,-99.99,,,-99.99,,2013-06-25 16:12:00,
2013-06-25 10:23:00,58.0,42.0,-100.00,NNW,340,4.0,5.0,55,-99.99,,,-99.99,,2013-06-25 16:23:00,
2013-06-25 10:34:00,59.0,42.0,-100.00,NW,325,5.0,7.0,52,-99.99,,,-99.99,,2013-06-25 16:34:00,
2013-06-25 10:43:00,61.0,42.0,-100.00,NW,314,6.0,7.0,50,-99.99,,,-99.99,,2013-06-25 16:43:00,
2013-06-25 11:01:00,61.0,42.0,-100.00,NNW,332,6.0,9.0,49,-99.99,,,-99.99,,2013-06-25 17:01:00,
2013-06-25 11:11:00,62.0,42.0,-100.00,North,358,2.0,8.0,46,-99.99,,,-99.99,,2013-06-25 17:11:00,
2013-06-25 11:22:00,62.0,42.0,-100.00,NNW,331,6.0,8.0,47,-99.99,,,-99.99,,2013-06-25 17:22:00,
2013-06-25 11:44:00,66.0,38.0,-100.00,NE,45,0.0,7.0,35,-99.99,,,-99.99,,2013-06-25 17:44:00,
2013-06-25 11:53:00,66.0,38.0,-100.00,NE,45,0.0,7.0,35,-99.99,,,-99.99,,2013-06-25 17:53:00,
2013-06-25 12:12:00,67.0,37.0,-100.00,West,279,8.0,10.0,33,-99.99,,,-99.99,,2013-06-25 18:12:00,
2013-06-25 12:34:00,67.0,38.0,-100.00,NNW,345,5.0,8.0,33,-99.99,,,-99.99,,2013-06-25 18:34:00,
2013-06-25 12:44:00,67.0,38.0,-100.00,NW,307,6.0,7.0,34,-99.99,,,-99.99,,2013-06-25 18:44:00,
2013-06-25 13:11:00,69.0,38.0,-100.00,South,171,2.0,7.0,31,-99.99,,,-99.99,,2013-06-25 19:11:00,
2013-06-25 13:22:00,70.0,38.0,-100.00,NW,316,4.0,7.0,31,-99.99,,,-99.99,,2013-06-25 19:22:00,
2013-06-25 13:33:00,69.0,38.0,-100.00,North,5,5.0,11.0,32,-99.99,,,-99.99,,2013-06-25 19:33:00,
2013-06-25 13:44:00,70.0,37.0,-100.00,East,95,3.0,11.0,30,-99.99,,,-99.99,,2013-06-25 19:44:00,
2013-06-25 14:01:00,69.0,37.0,-100.00,ESE,107,2.0,7.0,30,-99.99,,,-99.99,,2013-06-25 20:01:00,
2013-06-25 14:11:00,71.0,37.0,-100.00,ESE,121,2.0,7.0,29,-99.99,,,-99.99,,2013-06-25 20:11:00,
2013-06-25 14:21:00,70.0,37.0,-100.00,ENE,70,2.0,4.0,29,-99.99,,,-99.99,,2013-06-25 20:21:00,
2013-06-25 14:33:00,69.0,38.0,-100.00,North,350,4.0,9.0,31,-99.99,,,-99.99,,2013-06-25 20:33:00,
2013-06-25 14:52:00,71.0,36.0,-100.00,WNW,284,8.0,10.0,27,-99.99,,,-99.99,,2013-06-25 20:52:00,
2013-06-25 15:22:00,71.0,37.0,-100.00,WNW,287,3.0,14.0,28,-99.99,,,-99.99,,2013-06-25 21:22:00,
2013-06-25 15:33:00,71.0,37.0,-100.00,WNW,287,3.0,14.0,28,-99.99,,,-99.99,,2013-06-25 21:33:00,
2013-06-25 16:01:00,73.0,36.0,-100.00,SE,139,8.0,11.0,25,-99.99,,,-99.99,,2013-06-25 22:01:00,
2013-06-25 16:11:00,74.0,36.0,-100.00,SSE,155,5.0,9.0,25,-99.99,,,-99.99,,2013-06-25 22:11:00,
2013-06-25 16:42:00,76.0,37.0,-100.00,NNW,339,4.0,8.0,24,-99.99,,,-99.99,,2013-06-25 22:42:00,
2013-06-25 17:11:00,74.0,36.0,-100.00,NNW,346,5.0,7.0,24,-99.99,,,-99.99,,2013-06-25 23:11:00,
2013-06-25 17:22:00,75.0,34.0,-100.00,SW,220,7.0,18.0,21,-99.99,,,-99.99,,2013-06-25 23:22:00,
2013-06-25 17:43:00,75.0,34.0,-100.00,SW,228,13.0,19.0,22,-99.99,,,-99.99,,2013-06-25 23:43:00,
2013-06-25 19:43:00,76.0,34.0,-100.00,SSE,155,11.0,13.0,21,-99.99,,,-99.99,,2013-06-26 01:43:00,
2013-06-25 20:01:00,77.0,35.0,-100.00,South,178,6.0,12.0,21,-99.99,,,-99.99,,2013-06-26 02:01:00,
2013-06-25 20:11:00,77.0,35.0,-100.00,South,178,6.0,12.0,21,-99.99,,,-99.99,,2013-06-26 02:11:00,
2013-06-25 20:34:00,75.0,34.0,-100.00,SSE,165,13.0,14.0,22,-99.99,,,-99.99,,2013-06-26 02:34:00,
2013-06-25 20:43:00,74.0,35.0,-100.00,SSE,163,9.0,11.0,24,-99.99,,,-99.99,,2013-06-26 02:43:00,
2013-06-25 21:11:00,69.0,38.0,-100.00,North,0,3.0,6.0,32,-99.99,,,-99.99,,2013-06-26 03:11:00,
2013-06-25 21:22:00,66.0,39.0,-100.00,NNW,338,4.0,6.0,36,-99.99,,,-99.99,,2013-06-26 03:22:00,
2013-06-25 21:33:00,64.0,40.0,-100.00,North,352,3.0,6.0,42,-99.99,,,-99.99,,2013-06-26 03:33:00,
2013-06-25 21:43:00,64.0,40.0,-100.00,North,352,3.0,6.0,42,-99.99,,,-99.99,,2013-06-26 03:43:00,
2013-06-25 21:52:00,61.0,40.0,-100.00,NNE,29,3.0,7.0,44,-99.99,,,-99.99,,2013-06-26 03:52:00,
2013-06-25 22:11:00,61.0,39.0,-100.00,North,7,1.0,4.0,44,-99.99,,,-99.99,,2013-06-26 04:11:00,
2013-06-25 22:22:00,60.0,38.0,-100.00,North,10,1.0,2.0,44,-99.99,,,-99.99,,2013-06-26 04:22:00,
2013-06-25 22:33:00,58.0,39.0,-100.00,North,357,5.0,5.0,49,-99.99,,,-99.99,,2013-06-26 04:33:00,
2013-06-25 22:43:00,58.0,38.0,-100.00,ENE,61,2.0,5.0,47,-99.99,,,-99.99,,2013-06-26 04:43:00,
2013-06-25 22:53:00,59.0,37.0,-100.00,ESE,102,2.0,4.0,44,-99.99,,,-99.99,,2013-06-26 04:53:00,
2013-06-25 23:11:00,59.0,37.0,-100.00,SE,133,6.0,7.0,43,-99.99,,,-99.99,,2013-06-26 05:11:00,
2013-06-25 23:21:00,58.0,37.0,-100.00,NNE,14,1.0,8.0,45,-99.99,,,-99.99,,2013-06-26 05:21:00,
2013-06-25 23:43:00,56.0,37.0,-100.00,East,87,3.0,4.0,49,-99.99,,,-99.99,,2013-06-26 05:43:00,
2013-06-25 23:52:00,56.0,37.0,-100.00,NE,47,2.0,4.0,48,-99.99,,,-99.99,,2013-06-26 05:52:00,